Zurück zum Katalog

STARLINK-3672

AktivKommunikationVLEO
NORAD 51974·PAYLOAD·🇺🇸 United States

Gestartet Mar 9, 2022 von Cape Canaveral Space Force Station

Loading…

Nächste Überflüge (nächste 24 Stunden)

TLE

AktuellSource: CelesTrak SupGP

Epoche: Sep 14, 2026, 20:55 UTC

1 51974C 22025U   26257.87201389  .00039037  00000+0  12553-2 0  2573
2 51974  53.1570 236.7832 0001378  97.7027  27.7668 15.31683240    11

Verfolge STARLINK-3672 in Echtzeit mit AllMySat

Download on the App Store